Home   Weather   Fort Wayne   Past weeks
Flag for USA

Past Weather in Fort Wayne, Indiana, USA — Yesterday and Last 2 Weeks

Now
44 °F

Sunny.


Feels Like: 40 °F
Forecast: 50 / 26 °F
Wind: 7 mph from North

Location: Fort Wayne International Airport

Current Time: Mar 23, 2019 at 1:47:29 pm

Latest Report: Mar 23, 2019 at 12:54 pm


Visibility: 10 mi

Pressure: 30.37 "Hg

Humidity: 43%

Dew Point: 23 °F

Location of Fort WayneLocation

Past Weather in Fort Wayne — Graph

°F

Fort Wayne Temperature Yesterday

Maximum temperature yesterday: 48 °F (at 2:54 pm)
Minimum temperature yesterday: 31 °F (at 11:54 pm)
Average temperature yesterday: 39 °F

High & Low Weather Summary for the Past Weeks

 TemperatureHumidityPressure
High68 °F (Mar 14, 5:54 pm)100% (Mar 17, 1:54 pm)30.46 "Hg (Mar 17, 1:54 pm)
Low24 °F (Mar 9, 5:54 am)45% (Mar 18, 1:54 pm)29.40 "Hg (Mar 14, 5:54 pm)
Average39 °F77%30.10 "Hg
* Reported Mar 8 10:54 am — Mar 23 11:54 am, Fort Wayne. Weather by CustomWeather, © 2019

Note: Actual official high and low records may vary slightly from our data, if they occured in-between our weather recording intervals... More about our weather records

Advertising

Fort Wayne Weather History for the Previous 24 Hours

Scroll right to see more
 ConditionsComfort  
Time TempWeatherWind HumidityBarometerVisibility
11:54 am
Sat, Mar 23
39 °FSunny.No wind57%30.37 "Hg10 mi
10:54 am34 °FSunny.3 mph73%30.36 "Hg10 mi
9:54 am32 °FSunny.5 mph75%30.35 "Hg10 mi
8:54 am28 °FSunny.6 mph85%30.34 "Hg10 mi
7:54 am26 °FSunny.5 mph88%30.31 "Hg10 mi
6:54 am25 °FClear.5 mph92%30.28 "Hg10 mi
5:54 am26 °FClear.3 mph92%30.27 "Hg10 mi
4:54 am27 °FClear.No wind85%30.25 "Hg10 mi
3:54 am26 °FClear.No wind84%30.24 "Hg10 mi
2:54 am28 °FClear.5 mph85%30.23 "Hg10 mi
1:54 am29 °FClear.5 mph82%30.22 "Hg10 mi
12:54 am30 °FClear.5 mph82%30.22 "Hg10 mi
11:54 pm
Fri, Mar 22
31 °FClear.6 mph79%30.21 "Hg10 mi
10:54 pm32 °FClear.8 mph75%30.20 "Hg10 mi
9:54 pm34 °FClear.10 mph70%30.18 "Hg10 mi
8:54 pm36 °FClear.12 mph64%30.16 "Hg10 mi
7:54 pm38 °FPassing clouds.14 mph60%30.14 "Hg10 mi
6:54 pm42 °FPassing clouds.18 mph55%30.10 "Hg10 mi
5:54 pm44 °FPassing clouds.17 mph53%30.07 "Hg10 mi
4:54 pm47 °FPassing clouds.22 mph48%30.04 "Hg10 mi
3:54 pm47 °FScattered clouds.23 mph46%30.02 "Hg10 mi
2:54 pm48 °FScattered clouds.20 mph46%30.01 "Hg10 mi
1:54 pm47 °FScattered clouds.23 mph50%30.01 "Hg10 mi
Weather by CustomWeather, © 2019

See weather overview